Find Starlink 35213

NORAD ID: 65638 Int'l Des: 2025-210 Owner: SPXS Country: US Constellation: starlink operational
LEOCIRCULAR

現在のビュー

3D地球を読み込み中...

About Starlink 35213

Starlink 35213 (NORAD 65638) is a starlink constellation satellite (v2 mini) launched Sep 18, 2025 by SPXS of US. It operates in LEO, CIRCULAR orbit with a mass of 575.00 kg.

次回通過

Passes for default location (London). Set your location on the main map for personalized predictions.

高度履歴

Loading altitude history...

軌道要素

1 65638U 25210S 26263.91044243 .00025223 00000-0 75472-3 0 9996
2 65638 53.1572 115.8124 0001334 49.5769 310.5350 15.34416605 57684
Epoch: Sep 20, 2026 • Age: 13 hours

現在のステータス

高度 468.4 km
遠地点 / 近地点 N/A
速度 7.64 km/s
衛星直下点 53.31°N, 41.67°E
打ち上げ日 Sep 18, 2025
運用期間 1 year
タイプ internet

技術仕様

分類 Payload
質量 575.00 kg
乾燥質量 530.00 kg
長さ 0.30 m
スパン 29.00 m
形状 ? Box + pan
製造者 SPXS
バスタイプ Starlink V2MO
フェーズステータス In Orbit
所有者/国 SPXS/US

Most Searched